Regional Weather Roundup
Issued by NWS Green Bay, WI

Home | Current Version | Previous Version | Text Only | Print | Product List | Glossary On
Versions: 1 2 3 4 5 6 7 8 9 10 11 12 13 14 15 16 17 18 19 20 21 22 23 24 25 26 27 28 29 30 31 32 33 34 35 36 37 38 39 40 41 42 43 44 45 46 47 48 49 50
000
ASUS43 KGRB 290411
RWRGRB

NORTH-CENTRAL AND NORTHEAST WISCONSIN REGIONAL WEATHER ROUNDUP
NATIONAL WEATHER SERVICE GREEN BAY WI
1100 PM CDT THU JUL 28 2016

WIZ005-009-010>012-018-019-290500-
NORTH CENTRAL WISCONSIN

CITY           SKY/WX    TMP DP  RH WIND       PRES   REMARKS
IRONWOOD       CLEAR     52  48  87 CALM      30.09R
MANITOWISH WTR CLEAR     56  55  96 CALM      30.10S
ARBOR VITAE    CLEAR     57  53  86 CALM      30.10R
EAGLE RIVER    CLEAR     53  52  99 CALM      30.09S
LAND O LAKES   CLEAR     55  51  84 N3        30.10S
RHINELANDER    PTCLDY    57  52  83 NE3       30.09R
PHILLIPS       CLEAR     59  55  85 NE7       30.08S
ANTIGO         CLOUDY    61  55  80 CALM      30.07R
TOMAHAWK       CLOUDY    59  51  76 CALM      30.09R
MERRILL        CLOUDY    64  57  80 NE7       30.07R
$$

WIZ013-073-290500-
NORTHEAST WISCONSIN

CITY           SKY/WX    TMP DP  RH WIND       PRES   REMARKS
IRON MOUNTAIN  CLOUDY    58  50  75 NW3       30.06R
MARINETTE      CLOUDY   N/A N/A N/A NE8       30.04R
OCONTO         CLOUDY    63  58  83 NE6       30.03R
$$

WIZ017-030-035>037-045-290500-
CENTRAL WISCONSIN

CITY           SKY/WX    TMP DP  RH WIND       PRES   REMARKS
MEDFORD        CLOUDY    64  59  86 NE8       30.06R
WAUSAU         CLOUDY    66  59  78 CALM      30.03S
MOSINEE        CLOUDY    63  61  94 NE6       30.05R
MARSHFIELD     CLOUDY    66  61  84 NE7       30.03S
WISC RAPIDS    CLOUDY    66  60  81 N7        30.04R
STEVENS POINT  CLOUDY    63  60  92 NE6       30.03S
WAUPACA        MOCLDY    67  65  91 CALM      30.02R
SHAWANO        CLOUDY    67  57  71 NE9G16    30.03S
CLINTONVILLE   CLOUDY    66  55  68 NE8       30.02S
WAUTOMA        MOCLDY    65  61  87 NE6       30.01R
$$

WIZ038-039-048-051-290500-
FOX VALLEY

CITY           SKY/WX    TMP DP  RH WIND       PRES   REMARKS
NWS GREEN BAY  CLOUDY    67  60  78 N13       30.01R
APPLETON       MOCLDY    66  61  82 NE10      29.99S
OSHKOSH        HVY RAIN  67  60  78 NE12      29.99S
FOND DU LAC    LGT RAIN  66  60  81 NE10      29.99S
$$

WIZ022-050-052-290500-
EAST CENTRAL WISCONSIN

CITY           SKY/WX    TMP DP  RH WIND       PRES   REMARKS
EPHRAIM        FAIR      63  57  80 N9        30.01S
WASHINGTON ISL NOT AVBL
STURGEON BAY   CLOUDY    65  58  78 N8        30.03R
MANITOWOC      CLOUDY    65  63  93 N5        29.99S
SHEBOYGAN      CLOUDY    65  60  84 NE16      29.98R
$$

LMZ563-521-522-541>543-290500-
LAKESHORE

STATION/POSITION TIME  TEMP    WIND        PRES    VSBY  WAVE
                       AIR SEA DIR/SP/G                  HT/PER
                 (UTC) (F)     (DEG/KT/KT) (MB)    (MI)  (FT/S)
SHEBOYGAN LKSHOR 0400   61     350/ 14/ 15 1015.5R
KEWAUNEE LKSHORE 0300           10/  5/  8   N/A
ALGOMA MARINA    0343          360/  8/ 10   N/A
NORTHPORT PIER   0300   67      10/ 12/ 17 1016.3S
N MID LAKE BUOY  0350   66 69   10/ 19/ 23 1015.2F         4/ 4
SISTER BAY LKSHO 0306   65      10/ 11/ 15   N/A
CHAMBERS ISLAND  0300   67     360/ 17/ 21 1016.3S
MENOMINEE LKSHOR 0300           10/ 19/ 22   N/A
$$




USA.gov is the U.S. government's official web portal to all federal, state and local government web resources and services.